FW7842 Weather Reports


time (UTC)temp
C
wind
direction
speed
KPH
gust
KPH
rain 1hr
cm
rain 24hr
cm
rain mn
cm
humidity
%
barometer
mb
20260507085053 20 170 3.2 8.0 0.00 0.00 0.00 58 1013.5
20260507084023 20 164 3.2 6.4 0.00 0.00 0.00 58 1013.5
20260507083037 19 155 4.8 14.5 0.00 0.00 0.00 60 1013.5
20260507082023 19 167 1.6 6.4 0.00 0.00 0.00 59 1013.3
20260507081031 20 174 4.8 16.1 0.00 0.00 0.00 57 1013.4
20260507080033 20 183 3.2 9.7 0.00 0.00 0.00 58 1013.3
20260507075032 20 169 3.2 16.1 0.00 0.00 0.00 59 1013.2
20260507074034 20 160 3.2 9.7 0.00 0.00 0.00 60 1013.1
20260507073031 20 136 3.2 12.9 0.00 0.00 0.00 61 1013.0
20260507072033 19 152 3.2 6.4 0.00 0.00 0.00 61 1012.9
20260507071032 19 145 3.2 9.7 0.00 0.00 0.00 62 1013.0
20260507070043 18 152 3.2 8.0 0.00 0.00 0.00 63 1013.0
20260507065117 18 139 3.2 8.0 0.00 0.00 0.00 64 1012.9
20260507064023 18 154 1.6 4.8 0.00 0.00 0.00 66 1013.0
20260507063031 18 169 3.2 9.7 0.00 0.00 0.00 66 1013.0
20260507062107 18 166 1.6 6.4 0.00 0.00 0.00 67 1013.0
20260507061031 18 129 1.6 8.0 0.00 0.00 0.00 68 1012.8
20260507060032 17 168 1.6 6.4 0.00 0.00 0.00 69 1012.7
20260507055052 17 169 1.6 8.0 0.00 0.00 0.00 71 1012.8
20260507054023 17 158 1.6 9.7 0.00 0.00 0.00 74 1012.6
20260507053037 16 150 1.6 6.4 0.00 0.00 0.00 78 1012.5
20260507052023 16 131 0.0 4.8 0.00 0.00 0.00 81 1012.5
20260507051052 16 134 1.6 4.8 0.00 0.00 0.00 82 1012.3
20260507050024 15 119 0.0 1.6 0.00 0.00 0.00 84 1012.2
20260507045032 15 119 0.0 1.6 0.00 0.00 0.00 84 1012.2
20260507044023 15 196 0.0 1.6 0.00 0.00 0.00 84 1012.1
20260507043032 15 196 0.0 1.6 0.00 0.00 0.00 86 1011.9
20260507042043 15 197 0.0 1.6 0.00 0.00 0.00 87 1011.8
20260507041031 15 0.0 0.0 0.00 0.00 0.00 87 1011.8
20260507040044 15 0.0 0.0 0.00 0.00 0.00 87 1011.7
20260507035031 15 0.0 0.0 0.00 0.00 0.00 87 1011.6
20260507034033 15 0.0 0.0 0.00 0.00 0.00 87 1011.5
20260507033053 15 0.0 0.0 0.00 0.00 0.00 88 1011.4
20260507032023 15 0.0 0.0 0.00 0.00 0.00 89 1011.4
20260507031032 15 0.0 0.0 0.00 0.00 0.00 89 1011.4
20260507030023 15 0.0 0.0 0.00 0.00 0.00 89 1011.5
20260507025031 15 0.0 0.0 0.00 0.00 0.00 89 1011.4
20260507024044 15 0.0 0.0 0.00 0.00 0.00 89 1011.3
20260507023032 15 0.0 0.0 0.00 0.00 0.00 88 1011.4
20260507022023 15 0.0 0.0 0.00 0.00 0.00 88 1011.5
20260507021032 15 0.0 0.0 0.00 0.00 0.00 87 1011.4
20260507020023 15 0.0 0.0 0.00 0.00 0.00 87 1011.5
20260507015032 15 0.0 0.0 0.00 0.00 0.00 86 1011.5
20260507014032 15 0.0 0.0 0.00 0.00 0.00 86 1011.4
20260507013032 15 125 0.0 1.6 0.00 0.00 0.00 86 1011.5
20260507012023 15 0.0 0.0 0.00 0.00 0.00 85 1011.2
20260507011057 16 0.0 0.0 0.00 0.00 0.00 83 1011.3
20260507010024 16 0.0 0.0 0.00 0.00 0.00 80 1011.3
20260507005032 16 108 0.0 1.6 0.00 0.00 0.00 78 1011.3
20260507004025 16 143 0.0 1.6 0.00 0.00 0.00 76 1011.1
20260507003051 16 110 1.6 8.0 0.00 0.00 0.00 75 1011.3
20260507002023 17 355 1.6 6.4 0.00 0.00 0.00 75 1011.2
20260507001052 17 78 0.0 1.6 0.00 0.00 0.00 74 1011.3
20260507000023 17 94 0.0 4.8 0.00 0.00 0.00 74 1011.5
20260506235037 17 143 0.0 6.4 0.00 0.00 0.00 72 1011.5
20260506234024 17 77 0.0 8.0 0.00 0.00 0.00 70 1011.5
20260506233032 17 26 1.6 12.9 0.00 0.00 0.00 69 1011.5
20260506232024 17 80 1.6 4.8 0.00 0.00 0.00 70 1011.6
20260506231032 17 202 3.2 14.5 0.00 0.00 0.00 71 1011.5
20260506230032 17 97 0.0 1.6 0.00 0.00 0.00 69 1011.6
20260506225033 17 127 0.0 1.6 0.00 0.00 0.00 68 1011.5
20260506224024 17 91 0.0 1.6 0.00 0.00 0.00 68 1011.5
20260506223032 17 96 0.0 1.6 0.00 0.00 0.00 68 1011.4
20260506222028 17 91 0.0 1.6 0.00 0.00 0.00 68 1011.1
20260506221034 16 81 0.0 1.6 0.00 0.00 0.00 69 1011.2
20260506220033 16 0.0 0.0 0.00 0.00 0.00 70 1011.1
20260506215032 17 0.0 0.0 0.00 0.00 0.00 69 1011.0
20260506214053 17 0.0 0.0 0.00 0.00 0.00 67 1011.1
20260506213033 17 268 0.0 1.6 0.00 0.00 0.00 65 1011.2
20260506212024 18 0.0 0.0 0.00 0.00 0.00 64 1011.3
20260506211038 18 91 0.0 1.6 0.00 0.00 0.00 62 1011.3
20260506210044 19 0.0 0.0 0.00 0.00 0.00 61 1011.0
20260506205032 19 62 0.0 4.8 0.00 0.00 0.00 60 1010.9
20260506204025 18 30 0.0 6.4 0.00 0.00 0.00 59 1010.9
20260506203032 18 90 1.6 4.8 0.00 0.00 0.00 60 1010.9
20260506202033 16 152 0.0 4.8 0.00 0.00 0.00 65 1010.7
20260506201033 16 0.0 0.0 0.00 0.00 0.00 65 1010.4
20260506200024 16 0.0 0.0 0.00 0.00 0.00 65 1010.4
20260506195032 16 0.0 0.0 0.00 0.00 0.00 64 1010.5
20260506194024 16 0.0 0.0 0.00 0.00 0.00 64 1010.5
20260506193032 17 0.0 0.0 0.00 0.00 0.00 62 1010.4
20260506192025 17 0.0 0.0 0.00 0.00 0.00 60 1010.5
20260506191032 18 0.0 0.0 0.00 0.00 0.00 58 1010.3
20260506190024 18 0.0 0.0 0.00 0.00 0.00 56 1010.3
20260506185053 19 0.0 0.0 0.00 0.00 0.00 54 1010.1
20260506184024 20 116 0.0 4.8 0.00 0.00 0.00 53 1010.1
20260506183033 20 118 0.0 1.6 0.00 0.00 0.00 51 1009.8
20260506182024 21 116 0.0 1.6 0.00 0.00 0.00 48 1009.9
20260506181032 21 184 0.0 4.8 0.00 0.00 0.00 47 1009.9
20260506180044 22 125 0.0 1.6 0.00 0.00 0.00 46 1009.7
20260506175033 22 119 0.0 4.8 0.00 0.00 0.00 45 1009.8
20260506174044 22 116 0.0 1.6 0.00 0.00 0.00 44 1009.7
20260506173038 23 143 1.6 4.8 0.00 0.00 0.00 43 1009.8
20260506172024 23 153 1.6 6.4 0.00 0.00 0.00 42 1009.7
20260506171032 23 151 3.2 9.7 0.00 0.00 0.00 41 1009.7
20260506170024 23 158 1.6 9.7 0.00 0.00 0.00 40 1009.7
20260506165058 24 175 1.6 6.4 0.00 0.00 0.00 39 1009.7
20260506164033 24 158 1.6 6.4 0.00 0.00 0.00 38 1009.6
20260506163032 25 163 1.6 9.7 0.00 0.00 0.00 38 1009.6
20260506162046 25 146 3.2 9.7 0.00 0.00 0.00 37 1009.7
20260506161052 25 137 3.2 8.0 0.00 0.00 0.00 36 1009.8
20260506160024 25 191 4.8 16.1 0.00 0.00 0.00 35 1009.9
20260506155032 26 168 4.8 12.9 0.00 0.00 0.00 35 1009.8
20260506154104 26 134 4.8 12.9 0.00 0.00 0.00 35 1009.8
20260506153032 25 150 3.2 12.9 0.00 0.00 0.00 37 1009.8
20260506152026 26 149 3.2 9.7 0.00 0.00 0.00 36 1010.0
20260506151032 26 162 4.8 12.9 0.00 0.00 0.00 35 1010.0
20260506150024 26 177 4.8 14.5 0.00 0.00 0.00 35 1010.1
20260506145038 26 148 4.8 14.5 0.00 0.00 0.00 36 1010.1
20260506144045 26 171 6.4 17.7 0.00 0.00 0.00 35 1010.2
20260506143033 26 166 6.4 17.7 0.00 0.00 0.00 35 1010.2
20260506142033 26 158 3.2 8.0 0.00 0.00 0.00 35 1010.2
20260506141033 26 185 4.8 16.1 0.00 0.00 0.00 35 1010.4
20260506140145 26 179 4.8 14.5 0.00 0.00 0.00 35 1010.3
20260506135038 26 155 4.8 9.7 0.00 0.00 0.00 36 1010.4
20260506134025 26 157 4.8 14.5 0.00 0.00 0.00 36 1010.5
20260506133017 26 172 6.4 17.7 0.00 0.00 0.00 36 1010.7
20260506132026 25 149 6.4 14.5 0.00 0.00 0.00 38 1010.7
20260506131032 26 142 4.8 9.7 0.00 0.00 0.00 37 1010.8
20260506130044 27 157 4.8 16.1 0.00 0.00 0.00 35 1010.9
20260506125033 26 172 6.4 16.1 0.00 0.00 0.00 37 1011.0
20260506124025 26 159 4.8 12.9 0.00 0.00 0.00 36 1011.1
20260506123033 25 165 4.8 12.9 0.00 0.00 0.00 37 1011.2
20260506122025 26 172 4.8 12.9 0.00 0.00 0.00 37 1011.3
20260506121032 26 155 4.8 14.5 0.00 0.00 0.00 37 1011.3
20260506120024 25 186 4.8 17.7 0.00 0.00 0.00 39 1011.4
20260506115016 25 188 6.4 12.9 0.00 0.00 0.00 38 1011.3
20260506114025 26 151 4.8 14.5 0.00 0.00 0.00 36 1011.4
20260506113017 25 150 3.2 8.0 0.00 0.00 0.00 37 1011.5
20260506112025 25 127 3.2 12.9 0.00 0.00 0.00 37 1011.5
20260506111033 25 163 4.8 16.1 0.00 0.00 0.00 38 1011.5
20260506110026 25 131 3.2 9.7 0.00 0.00 0.00 40 1011.7
20260506105037 24 148 3.2 9.7 0.00 0.00 0.00 39 1011.7
20260506104033 24 176 3.2 12.9 0.00 0.00 0.00 41 1011.8
20260506103033 23 128 4.8 14.5 0.00 0.00 0.00 41 1011.8
20260506102025 23 170 6.4 14.5 0.00 0.00 0.00 42 1012.0
20260506101033 23 143 6.4 14.5 0.00 0.00 0.00 42 1012.0
20260506100025 22 173 4.8 16.1 0.00 0.00 0.00 44 1012.1
20260506095053 22 157 6.4 14.5 0.00 0.00 0.00 45 1012.0
20260506094145 23 156 3.2 8.0 0.00 0.00 0.00 44 1012.0
20260506093033 23 171 4.8 12.9 0.00 0.00 0.00 44 1011.9
20260506092025 23 151 6.4 14.5 0.00 0.00 0.00 44 1012.0
20260506091017 23 173 8.0 16.1 0.00 0.00 0.00 44 1011.8
20260506090053 22 163 6.4 20.9 0.00 0.00 0.00 45 1011.9